Zurück zum Katalog

DELTA 1 DEB

AktivSSO
NORAD 21377·DEBRIS·🇺🇸 United States

Gestartet Jun 12, 1975 von Vandenberg Space Force Base

Loading…

Nächste Überflüge (nächste 24 Stunden)

TLE

AktuellSource: Space-Track

Epoche: Sep 13, 2026, 12:11 UTC

1 21377U 75052CX  26256.50773132  .00001076  00000-0  18706-2 0  9996
2 21377 100.2986 267.6719 0223910 174.5520 339.7601 13.36927378705311

Verfolge DELTA 1 DEB in Echtzeit mit AllMySat

Download on the App Store